Regional Weather Roundup
Issued by NWS

Home | Current Version | Previous Version | Text Only | Print | Product List | Glossary On
Versions: 1 2 3 4 5 6 7 8 9 10 11 12 13 14 15 16 17 18 19 20 21 22 23 24 25 26 27 28 29 30 31 32 33 34 35 36 37 38 39 40 41 42 43 44 45 46 47 48
000
ASUS44 KBMX 300310
RWRAL

ALABAMA REGIONAL WEATHER ROUNDUP
NATIONAL WEATHER SERVICE BIRMINGHAM AL
1000 PM CDT MON JUN 29 2015

NOTE: "FAIR" INDICATES FEW OR NO CLOUDS BELOW 12,000 FEET
WITH NO SIGNIFICANT WEATHER AND/OR OBSTRUCTIONS TO VISIBILITY.

THE REMARK "TC" DENOTES TEMPERATURE IN DEGREES CELSIUS.

ALZ001>011-014-016>018-020-300400-
NORTH ALABAMA

CITY           SKY/WX    TMP DP  RH WIND       PRES   REMARKS
MUSCLE SHOALS  CLEAR     77  67  71 SW5       29.92S
HUNTSVILLE     PTCLDY    78  64  61 SW3       29.93R
DECATUR        CLEAR     77  65  66 CALM      29.93R
HALEYVILLE     FAIR      76  68  76 CALM      29.98R
GADSDEN        CLEAR    N/A N/A N/A CALM      29.94R
$$

ALZ012-013-022-023-030>036-040>044-300400-
WEST CENTRAL ALABAMA

CITY           SKY/WX    TMP DP  RH WIND       PRES   REMARKS
TUSCALOOSA     PTCLDY    79  70  74 S6        29.95R
$$

ALZ015-024>027-033>036-040>044-300400-
CENTRAL ALABAMA

CITY           SKY/WX    TMP DP  RH WIND       PRES   REMARKS
BIRMINGHAM     CLEAR     82  65  56 S8        29.98S
MONTGOMERY     CLEAR     78  72  81 S5        29.99R
SHELBY CO ARPT CLEAR     75  68  78 S3        29.98R
MAXWELL AFB    CLEAR     78  73  83 S6        29.99R
GREENVILLE     FAIR      75  70  84 SW3       30.01R
$$

ALZ019-021-028-029-037-038-045>048-300400-
EAST CENTRAL ALABAMA

CITY           SKY/WX    TMP DP  RH WIND       PRES   REMARKS
ANNISTON       PTCLDY    75  64  68 CALM      29.97S
ALEXANDER CITY PTCLDY    72  67  85 CALM      30.01R
AUBURN         CLEAR     75  64  69 S3        30.04R
$$

ALZ051>064-300400-
SOUTHWEST ALABAMA

CITY           SKY/WX    TMP DP  RH WIND       PRES   REMARKS
MOBILE         MOCLDY    75  72  90 S6        30.03R
BROOKLEY FIELD MOCLDY    76  73  91 CALM      30.03R
EVERGREEN      PTCLDY    74  70  87 S3        30.02R
$$

ALZ049-050-065>069-300400-
SOUTHEAST ALABAMA

CITY           SKY/WX    TMP DP  RH WIND       PRES   REMARKS
DOTHAN         CLEAR     77  73  87 S6        30.06R
OZARK          CLEAR     77  73  87 S5        30.02R
TROY           CLEAR     76  72  87 CALM      30.02R
EUFAULA        FAIR      75  68  78 SW3       30.01R
$$


USA.gov is the U.S. government's official web portal to all federal, state and local government web resources and services.